Year,Month,Day,Hour,Minute,Value (Times are PST for temperature in C)
2014,08,21,00,00,14.20
2014,08,21,00,01,14.20
2014,08,21,00,02,14.20
2014,08,21,00,03,14.20
2014,08,21,00,04,14.20
2014,08,21,00,05,14.20
2014,08,21,00,06,14.20
2014,08,21,00,07,14.20
2014,08,21,00,08,14.10
2014,08,21,00,09,14.10
2014,08,21,00,10,14.10
2014,08,21,00,11,14.10
2014,08,21,00,12,14.10
2014,08,21,00,13,14.10
2014,08,21,00,14,14.00
2014,08,21,00,15,14.00
2014,08,21,00,16,14.00
2014,08,21,00,17,14.00
2014,08,21,00,18,14.00
2014,08,21,00,19,13.90
2014,08,21,00,20,13.90
2014,08,21,00,21,13.90
2014,08,21,00,22,13.90
2014,08,21,00,23,13.90
2014,08,21,00,24,13.90
2014,08,21,00,25,13.80
2014,08,21,00,26,13.80
2014,08,21,00,27,13.80
2014,08,21,00,28,13.80
2014,08,21,00,29,13.80
2014,08,21,00,30,13.80
2014,08,21,00,31,13.80
2014,08,21,00,32,13.80
2014,08,21,00,33,13.80
2014,08,21,00,34,13.70
2014,08,21,00,35,13.70
2014,08,21,00,36,13.70
2014,08,21,00,37,13.70
2014,08,21,00,38,13.70
2014,08,21,00,39,13.70
2014,08,21,00,40,13.70
2014,08,21,00,41,13.60
2014,08,21,00,42,13.60
2014,08,21,00,43,13.60
2014,08,21,00,44,13.60
2014,08,21,00,45,13.60
2014,08,21,00,46,13.50
2014,08,21,00,47,13.50
2014,08,21,00,48,13.50
2014,08,21,00,49,13.50
2014,08,21,00,50,13.50
2014,08,21,00,51,13.40
2014,08,21,00,52,13.40
2014,08,21,00,53,13.40
2014,08,21,00,54,13.40
2014,08,21,00,55,13.40
2014,08,21,00,56,13.40
2014,08,21,00,57,13.40
2014,08,21,00,58,13.40
2014,08,21,00,59,13.40
2014,08,21,01,00,13.40
2014,08,21,01,01,13.40
2014,08,21,01,02,13.40
2014,08,21,01,03,13.40
2014,08,21,01,04,13.40
2014,08,21,01,05,13.40
2014,08,21,01,06,13.40
2014,08,21,01,07,13.40
2014,08,21,01,08,13.40
2014,08,21,01,09,13.40
2014,08,21,01,10,13.40
2014,08,21,01,11,13.40
2014,08,21,01,12,13.40
2014,08,21,01,13,13.40
2014,08,21,01,14,13.40
2014,08,21,01,15,13.40
2014,08,21,01,16,13.40
2014,08,21,01,17,13.40
2014,08,21,01,18,13.40
2014,08,21,01,19,13.40
2014,08,21,01,20,13.40
2014,08,21,01,21,13.40
2014,08,21,01,22,13.40
2014,08,21,01,23,13.40
2014,08,21,01,24,13.40
2014,08,21,01,25,13.40
2014,08,21,01,26,13.40
2014,08,21,01,27,13.30
2014,08,21,01,28,13.30
2014,08,21,01,29,13.30
2014,08,21,01,30,13.30
2014,08,21,01,31,13.30
2014,08,21,01,32,13.30
2014,08,21,01,33,13.30
2014,08,21,01,34,13.30
2014,08,21,01,35,13.30
2014,08,21,01,36,13.20
2014,08,21,01,37,13.20
2014,08,21,01,38,13.20
2014,08,21,01,39,13.20
2014,08,21,01,40,13.20
2014,08,21,01,41,13.20
2014,08,21,01,42,13.10
2014,08,21,01,43,13.10
2014,08,21,01,44,13.10
2014,08,21,01,45,13.10
2014,08,21,01,46,13.10
2014,08,21,01,47,13.10
2014,08,21,01,48,13.10
2014,08,21,01,49,13.10
2014,08,21,01,50,13.10
2014,08,21,01,51,13.10
2014,08,21,01,52,13.10
2014,08,21,01,53,13.10
2014,08,21,01,54,13.00
2014,08,21,01,55,13.00
2014,08,21,01,56,13.00
2014,08,21,01,57,13.00
2014,08,21,01,58,13.00
2014,08,21,01,59,13.00
2014,08,21,02,00,13.00
2014,08,21,02,01,13.00
2014,08,21,02,02,13.00
2014,08,21,02,03,13.00
2014,08,21,02,04,13.00
2014,08,21,02,05,13.00
2014,08,21,02,06,13.00
2014,08,21,02,07,13.00
2014,08,21,02,08,13.00
2014,08,21,02,09,13.00
2014,08,21,02,10,13.00
2014,08,21,02,11,13.00
2014,08,21,02,12,13.00
2014,08,21,02,13,13.00
2014,08,21,02,14,13.00
2014,08,21,02,15,13.00
2014,08,21,02,16,13.00
2014,08,21,02,17,13.00
2014,08,21,02,18,13.00
2014,08,21,02,19,13.00
2014,08,21,02,20,13.00
2014,08,21,02,21,13.00
2014,08,21,02,22,13.00
2014,08,21,02,23,13.00
2014,08,21,02,24,12.90
2014,08,21,02,25,12.90
2014,08,21,02,26,12.90
2014,08,21,02,27,12.90
2014,08,21,02,28,12.90
2014,08,21,02,29,12.90
2014,08,21,02,30,12.90
2014,08,21,02,31,12.90
2014,08,21,02,32,12.90
2014,08,21,02,33,12.90
2014,08,21,02,34,12.90
2014,08,21,02,35,12.90
2014,08,21,02,36,12.90
2014,08,21,02,37,12.90
2014,08,21,02,38,12.90
2014,08,21,02,39,12.90
2014,08,21,02,40,12.90
2014,08,21,02,41,12.90
2014,08,21,02,42,12.90
2014,08,21,02,43,12.90
2014,08,21,02,44,12.90
2014,08,21,02,45,12.90
2014,08,21,02,46,12.90
2014,08,21,02,47,12.80
2014,08,21,02,48,12.80
2014,08,21,02,49,12.80
2014,08,21,02,50,12.80
2014,08,21,02,51,12.80
2014,08,21,02,52,12.80
2014,08,21,02,53,12.80
2014,08,21,02,54,12.80
2014,08,21,02,55,12.80
2014,08,21,02,56,12.80
2014,08,21,02,57,12.80
2014,08,21,02,58,12.80
2014,08,21,02,59,12.80
2014,08,21,03,00,12.80
2014,08,21,03,01,12.80
2014,08,21,03,02,12.70
2014,08,21,03,03,12.70
2014,08,21,03,04,12.70
2014,08,21,03,05,12.70
2014,08,21,03,06,12.70
2014,08,21,03,07,12.70
2014,08,21,03,08,12.70
2014,08,21,03,09,12.70
2014,08,21,03,10,12.70
2014,08,21,03,11,12.70
2014,08,21,03,12,12.70
2014,08,21,03,13,12.70
2014,08,21,03,14,12.70
2014,08,21,03,15,12.70
2014,08,21,03,16,12.70
2014,08,21,03,17,12.70
2014,08,21,03,18,12.70
2014,08,21,03,19,12.70
2014,08,21,03,20,12.70
2014,08,21,03,21,12.70
2014,08,21,03,22,12.70
2014,08,21,03,23,12.60
2014,08,21,03,24,12.60
2014,08,21,03,25,12.60
2014,08,21,03,26,12.60
2014,08,21,03,27,12.60
2014,08,21,03,28,12.60
2014,08,21,03,29,12.60
2014,08,21,03,30,12.60
2014,08,21,03,31,12.60
2014,08,21,03,32,12.60
2014,08,21,03,33,12.60
2014,08,21,03,34,12.60
2014,08,21,03,35,12.60
2014,08,21,03,36,12.60
2014,08,21,03,37,12.50
2014,08,21,03,38,12.50
2014,08,21,03,39,12.50
2014,08,21,03,40,12.50
2014,08,21,03,41,12.50
2014,08,21,03,42,12.50
2014,08,21,03,43,12.40
2014,08,21,03,44,12.40
2014,08,21,03,45,12.40
2014,08,21,03,46,12.40
2014,08,21,03,47,12.40
2014,08,21,03,48,12.40
2014,08,21,03,49,12.40
2014,08,21,03,50,12.40
2014,08,21,03,51,12.40
2014,08,21,03,52,12.40
2014,08,21,03,53,12.40
2014,08,21,03,54,12.40
2014,08,21,03,55,12.30
2014,08,21,03,56,12.30
2014,08,21,03,57,12.30
2014,08,21,03,58,12.30
2014,08,21,03,59,12.30
2014,08,21,04,00,12.30
2014,08,21,04,01,12.30
2014,08,21,04,02,12.30
2014,08,21,04,03,12.30
2014,08,21,04,04,12.20
2014,08,21,04,05,12.20
2014,08,21,04,06,12.20
2014,08,21,04,07,12.20
2014,08,21,04,08,12.20
2014,08,21,04,09,12.20
2014,08,21,04,10,12.20
2014,08,21,04,11,12.20
2014,08,21,04,12,12.20
2014,08,21,04,13,12.20
2014,08,21,04,14,12.20
2014,08,21,04,15,12.20
2014,08,21,04,16,12.20
2014,08,21,04,17,12.20
2014,08,21,04,18,12.20
2014,08,21,04,19,12.20
2014,08,21,04,20,12.20
2014,08,21,04,21,12.20
2014,08,21,04,22,12.20
2014,08,21,04,23,12.20
2014,08,21,04,24,12.20
2014,08,21,04,25,12.10
2014,08,21,04,26,12.10
2014,08,21,04,27,12.10
2014,08,21,04,28,12.10
2014,08,21,04,29,12.10
2014,08,21,04,30,12.10
2014,08,21,04,31,12.10
2014,08,21,04,32,12.10
2014,08,21,04,33,12.10
2014,08,21,04,34,12.10
2014,08,21,04,35,12.10
2014,08,21,04,36,12.10
2014,08,21,04,37,12.10
2014,08,21,04,38,12.10
2014,08,21,04,39,12.10
2014,08,21,04,40,12.10
2014,08,21,04,41,12.10
2014,08,21,04,42,12.10
2014,08,21,04,43,12.10
2014,08,21,04,44,12.10
2014,08,21,04,45,12.10
2014,08,21,04,46,12.10
2014,08,21,04,47,12.10
2014,08,21,04,48,12.10
2014,08,21,04,49,12.10
2014,08,21,04,50,12.10
2014,08,21,04,51,12.10
2014,08,21,04,52,12.10
2014,08,21,04,53,12.10
2014,08,21,04,54,12.10
2014,08,21,04,55,12.10
2014,08,21,04,56,12.10
2014,08,21,04,57,12.10
2014,08,21,04,58,12.10
2014,08,21,04,59,12.10
2014,08,21,05,00,12.00
2014,08,21,05,01,12.00
2014,08,21,05,02,12.10
2014,08,21,05,03,12.10
2014,08,21,05,04,12.00
2014,08,21,05,05,12.00
2014,08,21,05,06,12.00
2014,08,21,05,07,12.00
2014,08,21,05,08,12.00
2014,08,21,05,09,12.00
2014,08,21,05,10,12.00
2014,08,21,05,11,12.00
2014,08,21,05,12,12.00
2014,08,21,05,13,12.00
2014,08,21,05,14,12.00
2014,08,21,05,15,12.00
2014,08,21,05,16,12.00
2014,08,21,05,17,12.00
2014,08,21,05,18,12.00
2014,08,21,05,19,12.00
2014,08,21,05,20,12.00
2014,08,21,05,21,12.00
2014,08,21,05,22,12.00
2014,08,21,05,23,12.00
2014,08,21,05,24,12.00
2014,08,21,05,25,12.00
2014,08,21,05,26,12.00
2014,08,21,05,27,12.10
2014,08,21,05,28,12.10
2014,08,21,05,29,12.10
2014,08,21,05,30,12.10
2014,08,21,05,31,12.10
2014,08,21,05,32,12.10
2014,08,21,05,33,12.10
2014,08,21,05,34,12.10
2014,08,21,05,35,12.10
2014,08,21,05,36,12.10
2014,08,21,05,37,12.10
2014,08,21,05,38,12.10
2014,08,21,05,39,12.10
2014,08,21,05,40,12.10
2014,08,21,05,41,12.10
2014,08,21,05,42,12.10
2014,08,21,05,43,12.10
2014,08,21,05,44,12.10
2014,08,21,05,45,12.10
2014,08,21,05,46,12.10
2014,08,21,05,47,12.10
2014,08,21,05,48,12.10
2014,08,21,05,49,12.10
2014,08,21,05,50,12.10
2014,08,21,05,51,12.10
2014,08,21,05,52,12.10
2014,08,21,05,53,12.10
2014,08,21,05,54,12.10
2014,08,21,05,55,12.10
2014,08,21,05,56,12.00
2014,08,21,05,57,12.10
2014,08,21,05,58,12.00
2014,08,21,05,59,12.00
2014,08,21,06,00,12.00
2014,08,21,06,01,12.00
2014,08,21,06,02,12.00
2014,08,21,06,03,12.00
2014,08,21,06,04,12.00
2014,08,21,06,05,12.00
2014,08,21,06,06,11.90
2014,08,21,06,07,11.90
2014,08,21,06,08,11.90
2014,08,21,06,09,11.90
2014,08,21,06,10,11.90
2014,08,21,06,11,11.90
2014,08,21,06,12,11.90
2014,08,21,06,13,11.90
2014,08,21,06,14,11.90
2014,08,21,06,15,11.90
2014,08,21,06,16,11.90
2014,08,21,06,17,11.90
2014,08,21,06,18,11.90
2014,08,21,06,19,11.90
2014,08,21,06,20,11.90
2014,08,21,06,21,11.90
2014,08,21,06,22,11.90
2014,08,21,06,23,11.90
2014,08,21,06,24,11.90
2014,08,21,06,25,11.90
2014,08,21,06,26,11.90
2014,08,21,06,27,11.90
2014,08,21,06,28,11.90
2014,08,21,06,29,11.90
2014,08,21,06,30,11.90
2014,08,21,06,31,11.90
2014,08,21,06,32,11.90
2014,08,21,06,33,11.90
2014,08,21,06,34,11.90
2014,08,21,06,35,11.90
2014,08,21,06,36,11.90
2014,08,21,06,37,11.90
2014,08,21,06,38,11.90
2014,08,21,06,39,11.90
2014,08,21,06,40,11.90
2014,08,21,06,41,11.90
2014,08,21,06,42,11.90
2014,08,21,06,43,11.90
2014,08,21,06,44,11.90
2014,08,21,06,45,11.90
2014,08,21,06,46,11.90
2014,08,21,06,47,11.90
2014,08,21,06,48,11.90
2014,08,21,06,49,11.90
2014,08,21,06,50,11.90
2014,08,21,06,51,11.90
2014,08,21,06,52,11.90
2014,08,21,06,53,11.90
2014,08,21,06,54,11.90
2014,08,21,06,55,11.90
2014,08,21,06,56,11.90
2014,08,21,06,57,11.90
2014,08,21,06,58,11.90
2014,08,21,06,59,11.90
2014,08,21,07,00,11.90
2014,08,21,07,01,12.00
2014,08,21,07,02,12.00
2014,08,21,07,03,12.00
2014,08,21,07,04,12.00
2014,08,21,07,05,12.00
2014,08,21,07,06,12.00
2014,08,21,07,07,12.00
2014,08,21,07,08,12.00
2014,08,21,07,09,12.00
2014,08,21,07,10,12.10
2014,08,21,07,11,12.10
2014,08,21,07,12,12.10
2014,08,21,07,13,12.10
2014,08,21,07,14,12.10
2014,08,21,07,15,12.10
2014,08,21,07,16,12.10
2014,08,21,07,17,12.10
2014,08,21,07,18,12.10
2014,08,21,07,19,12.10
2014,08,21,07,20,12.10
2014,08,21,07,21,12.10
2014,08,21,07,22,12.10
2014,08,21,07,23,12.20
2014,08,21,07,24,12.20
2014,08,21,07,25,12.20
2014,08,21,07,26,12.20
2014,08,21,07,27,12.20
2014,08,21,07,28,12.20
2014,08,21,07,29,12.20
2014,08,21,07,30,12.30
2014,08,21,07,31,12.30
2014,08,21,07,32,12.30
2014,08,21,07,33,12.30
2014,08,21,07,34,12.30
2014,08,21,07,35,12.30
2014,08,21,07,36,12.30
2014,08,21,07,37,12.30
2014,08,21,07,38,12.30
2014,08,21,07,39,12.30
2014,08,21,07,40,12.30
2014,08,21,07,41,12.30
2014,08,21,07,42,12.30
2014,08,21,07,43,12.30
2014,08,21,07,44,12.30
2014,08,21,07,45,12.30
2014,08,21,07,46,12.30
2014,08,21,07,47,12.30
2014,08,21,07,48,12.30
2014,08,21,07,49,12.30
2014,08,21,07,50,12.30
2014,08,21,07,51,12.30
2014,08,21,07,52,12.30
2014,08,21,07,53,12.30
2014,08,21,07,54,12.30
2014,08,21,07,55,12.30
2014,08,21,07,56,12.30
2014,08,21,07,57,12.30
2014,08,21,07,58,12.30
2014,08,21,07,59,12.30
2014,08,21,08,00,12.30
2014,08,21,08,01,12.30
2014,08,21,14,31,15.70
2014,08,21,14,32,15.70
2014,08,21,14,33,15.70
2014,08,21,14,34,15.70
2014,08,21,14,35,15.70
2014,08,21,14,36,15.60
2014,08,21,14,37,15.60
2014,08,21,14,38,15.60
2014,08,21,14,39,15.60
2014,08,21,14,40,15.60
2014,08,21,14,41,15.60
2014,08,21,14,42,15.60
2014,08,21,14,43,15.50
2014,08,21,14,44,15.50
2014,08,21,14,45,15.50
2014,08,21,14,46,15.50
2014,08,21,14,47,15.50
2014,08,21,14,48,15.50
2014,08,21,14,49,15.50
2014,08,21,14,50,15.60
2014,08,21,14,51,15.60
2014,08,21,14,52,15.70
2014,08,21,14,53,15.70
2014,08,21,14,54,15.70
2014,08,21,14,55,15.70
2014,08,21,14,56,15.80
2014,08,21,14,57,15.80
2014,08,21,14,58,15.80
2014,08,21,14,59,15.80
2014,08,21,15,00,15.80
2014,08,21,15,01,15.90
2014,08,21,15,02,15.90
2014,08,21,15,03,16.00
2014,08,21,15,04,16.00
2014,08,21,15,05,16.10
2014,08,21,15,06,16.10
2014,08,21,15,07,16.20
2014,08,21,15,08,16.20
2014,08,21,15,09,16.20
2014,08,21,15,10,16.20
2014,08,21,15,11,16.20
2014,08,21,15,12,16.30
2014,08,21,15,13,16.30
2014,08,21,15,14,16.30
2014,08,21,15,15,16.30
2014,08,21,15,16,16.30
2014,08,21,15,17,16.30
2014,08,21,15,18,16.30
2014,08,21,15,19,16.30
2014,08,21,15,20,16.40
2014,08,21,15,21,16.40
2014,08,21,15,22,16.40
2014,08,21,15,23,16.40
2014,08,21,15,24,16.50
2014,08,21,15,25,16.50
2014,08,21,15,26,16.50
2014,08,21,15,27,16.60
2014,08,21,15,28,16.60
2014,08,21,15,29,16.60
2014,08,21,15,30,16.60
2014,08,21,15,31,16.60
2014,08,21,15,32,16.60
2014,08,21,15,33,16.60
2014,08,21,15,34,16.60
2014,08,21,15,35,16.60
2014,08,21,15,36,16.50
2014,08,21,15,37,16.50
2014,08,21,15,38,16.50
2014,08,21,15,39,16.50
2014,08,21,15,40,16.50
2014,08,21,15,41,16.50
2014,08,21,15,42,16.50
2014,08,21,15,43,16.60
2014,08,21,15,44,16.60
2014,08,21,15,45,16.60
2014,08,21,15,46,16.60
2014,08,21,15,47,16.60
2014,08,21,15,48,16.60
2014,08,21,15,49,16.60
2014,08,21,15,50,16.60
2014,08,21,15,51,16.60
2014,08,21,15,52,16.60
2014,08,21,15,53,16.60
2014,08,21,15,54,16.50
2014,08,21,15,55,16.50
2014,08,21,15,56,16.40
2014,08,21,15,57,16.40
2014,08,21,15,58,16.40
2014,08,21,15,59,16.40
2014,08,21,16,00,16.40
2014,08,21,16,01,16.40
2014,08,21,16,02,16.50
2014,08,21,16,03,16.50
2014,08,21,16,04,16.50
2014,08,21,16,05,16.60
2014,08,21,16,06,16.60
2014,08,21,16,07,16.60
2014,08,21,16,08,16.60
2014,08,21,16,09,16.60
2014,08,21,16,10,16.60
2014,08,21,16,11,16.50
2014,08,21,16,12,16.50
2014,08,21,16,13,16.40
2014,08,21,16,14,16.30
2014,08,21,16,15,16.30
2014,08,21,16,16,16.30
2014,08,21,16,17,16.20
2014,08,21,16,18,16.20
2014,08,21,16,19,16.20
2014,08,21,16,20,16.30
2014,08,21,16,21,16.30
2014,08,21,16,22,16.40
2014,08,21,16,23,16.40
2014,08,21,16,24,16.40
2014,08,21,16,25,16.50
2014,08,21,16,26,16.60
2014,08,21,16,27,16.60
2014,08,21,16,28,16.60
2014,08,21,16,29,16.60
2014,08,21,16,30,16.60
2014,08,21,16,31,16.70
2014,08,21,16,32,16.70
2014,08,21,16,33,16.70
2014,08,21,16,34,16.70
2014,08,21,16,35,16.80
2014,08,21,16,36,16.70
2014,08,21,16,37,16.70
2014,08,21,16,38,16.70
2014,08,21,16,39,16.70
2014,08,21,16,40,16.70
2014,08,21,16,41,16.60
2014,08,21,16,42,16.60
2014,08,21,16,43,16.50
2014,08,21,16,44,16.50
2014,08,21,16,45,16.40
2014,08,21,16,46,16.40
2014,08,21,16,47,16.30
2014,08,21,16,48,16.20
2014,08,21,16,49,16.20
2014,08,21,16,50,16.20
2014,08,21,16,51,16.20
2014,08,21,16,52,16.20
2014,08,21,16,53,16.20
2014,08,21,16,54,16.20
2014,08,21,16,55,16.20
2014,08,21,16,56,16.20
2014,08,21,16,57,16.30
2014,08,21,16,58,16.30
2014,08,21,16,59,16.20
2014,08,21,17,00,16.20
2014,08,21,17,01,16.20
2014,08,21,17,02,16.20
2014,08,21,17,03,16.20
2014,08,21,17,04,16.20
2014,08,21,17,05,16.10
2014,08,21,17,06,16.10
2014,08,21,17,07,16.10
2014,08,21,17,08,16.00
2014,08,21,17,09,15.90
2014,08,21,17,10,15.90
2014,08,21,17,11,15.80
2014,08,21,17,12,15.80
2014,08,21,17,13,15.70
2014,08,21,17,14,15.70
2014,08,21,17,15,15.60
2014,08,21,17,16,15.60
2014,08,21,17,17,15.60
2014,08,21,17,18,15.60
2014,08,21,17,19,15.50
2014,08,21,17,20,15.50
2014,08,21,17,21,15.50
2014,08,21,17,22,15.50
2014,08,21,17,23,15.60
2014,08,21,17,24,15.60
2014,08,21,17,25,15.60
2014,08,21,17,26,15.50
2014,08,21,17,27,15.50
2014,08,21,17,28,15.40
2014,08,21,17,29,15.40
2014,08,21,17,30,15.30
2014,08,21,17,31,15.30
2014,08,21,17,32,15.20
2014,08,21,17,33,15.20
2014,08,21,17,34,15.10
2014,08,21,17,35,15.10
2014,08,21,17,36,15.10
2014,08,21,17,37,15.10
2014,08,21,17,38,15.00
2014,08,21,17,39,15.00
2014,08,21,17,40,14.90
2014,08,21,17,41,14.90
2014,08,21,17,42,14.80
2014,08,21,17,43,14.80
2014,08,21,17,44,14.90
2014,08,21,17,45,14.80
2014,08,21,17,46,14.80
2014,08,21,17,47,14.80
2014,08,21,17,48,14.80
2014,08,21,17,49,14.80
2014,08,21,17,50,14.80
2014,08,21,17,51,14.80
2014,08,21,17,52,14.80
2014,08,21,17,53,14.90
2014,08,21,17,54,14.90
2014,08,21,17,55,14.90
2014,08,21,17,56,14.90
2014,08,21,17,57,14.90
2014,08,21,17,58,14.80
2014,08,21,17,59,14.80
2014,08,21,18,00,14.80
2014,08,21,18,01,14.80
2014,08,21,18,02,14.80
2014,08,21,18,03,14.80
2014,08,21,18,04,14.80
2014,08,21,18,05,14.80
2014,08,21,18,06,14.80
2014,08,21,18,07,14.80
2014,08,21,18,08,14.80
2014,08,21,18,09,14.80
2014,08,21,18,10,14.80
2014,08,21,18,11,14.80
2014,08,21,18,12,14.90
2014,08,21,18,13,14.90
2014,08,21,18,14,14.90
2014,08,21,18,15,14.90
2014,08,21,18,16,14.90
2014,08,21,18,17,14.90
2014,08,21,18,18,14.90
2014,08,21,18,19,14.90
2014,08,21,18,20,14.80
2014,08,21,18,21,14.80
2014,08,21,18,22,14.80
2014,08,21,18,23,14.70
2014,08,21,18,24,14.70
2014,08,21,18,25,14.60
2014,08,21,18,26,14.60
2014,08,21,18,27,14.60
2014,08,21,18,28,14.60
2014,08,21,18,29,14.60
2014,08,21,18,30,14.60
2014,08,21,18,31,14.60
2014,08,21,18,32,14.60
2014,08,21,18,33,14.60
2014,08,21,18,34,14.60
2014,08,21,18,35,14.60
2014,08,21,18,36,14.60
2014,08,21,18,37,14.60
2014,08,21,18,38,14.60
2014,08,21,18,39,14.60
2014,08,21,18,40,14.60
2014,08,21,18,41,14.60
2014,08,21,18,42,14.70
2014,08,21,18,43,14.70
2014,08,21,18,44,14.80
2014,08,21,18,45,14.80
2014,08,21,18,46,14.80
2014,08,21,18,47,14.80
2014,08,21,18,48,14.80
2014,08,21,18,49,14.70
2014,08,21,18,50,14.70
2014,08,21,18,51,14.70
2014,08,21,18,52,14.70
2014,08,21,18,53,14.70
2014,08,21,18,54,14.60
2014,08,21,18,55,14.60
2014,08,21,18,56,14.60
2014,08,21,18,57,14.50
2014,08,21,18,58,14.50
2014,08,21,18,59,14.50
2014,08,21,19,00,14.50
2014,08,21,19,01,14.50
2014,08,21,19,02,14.40
2014,08,21,19,03,14.40
2014,08,21,19,04,14.40
2014,08,21,19,05,14.40
2014,08,21,19,06,14.40
2014,08,21,19,07,14.40
2014,08,21,19,08,14.50
2014,08,21,19,09,14.50
2014,08,21,19,10,14.50
2014,08,21,19,11,14.60
2014,08,21,19,12,14.60
2014,08,21,19,13,14.60
2014,08,21,19,14,14.60
2014,08,21,19,15,14.70
2014,08,21,19,16,14.70
2014,08,21,19,17,14.70
2014,08,21,19,18,14.70
2014,08,21,19,19,14.80
2014,08,21,19,20,14.80
2014,08,21,19,21,14.80
2014,08,21,19,22,14.90
2014,08,21,19,23,14.90
2014,08,21,19,24,15.00
2014,08,21,19,25,15.00
2014,08,21,19,26,15.10
2014,08,21,19,27,15.10
2014,08,21,19,28,15.10
2014,08,21,19,29,15.20
2014,08,21,19,30,15.20
2014,08,21,19,31,15.30
2014,08,21,19,32,15.40
2014,08,21,19,33,15.40
2014,08,21,19,34,15.50
2014,08,21,19,35,15.60
2014,08,21,19,36,15.60
2014,08,21,19,37,15.60
2014,08,21,19,38,15.70
2014,08,21,19,39,15.70
2014,08,21,19,40,15.80
2014,08,21,19,41,15.80
2014,08,21,19,42,15.90
2014,08,21,19,43,16.00
2014,08,21,19,44,16.00
2014,08,21,19,45,16.10
2014,08,21,19,46,16.10
2014,08,21,19,47,16.10
2014,08,21,19,48,16.10
2014,08,21,19,49,16.10
2014,08,21,19,50,16.10
2014,08,21,19,51,16.10
2014,08,21,19,52,16.10
2014,08,21,19,53,16.10
2014,08,21,19,54,16.10
2014,08,21,19,55,16.10
2014,08,21,19,56,16.10
2014,08,21,19,57,16.10
2014,08,21,19,58,16.10
2014,08,21,19,59,16.10
2014,08,21,20,00,16.10
2014,08,21,20,01,16.10
2014,08,21,20,02,16.10
2014,08,21,20,03,16.10
2014,08,21,20,04,16.00
2014,08,21,20,05,16.00
2014,08,21,20,06,16.00
2014,08,21,20,07,15.90
2014,08,21,20,08,15.90
2014,08,21,20,09,15.90
2014,08,21,20,10,15.90
2014,08,21,20,11,15.80
2014,08,21,20,12,15.80
2014,08,21,20,13,15.80
2014,08,21,20,14,15.80
2014,08,21,20,15,15.70
2014,08,21,20,16,15.70
2014,08,21,20,17,15.70
2014,08,21,20,18,15.70
2014,08,21,20,19,15.70
2014,08,21,20,20,15.70
2014,08,21,20,21,15.70
2014,08,21,20,22,15.60
2014,08,21,20,23,15.60
2014,08,21,20,24,15.60
2014,08,21,20,25,15.60
2014,08,21,20,26,15.60
2014,08,21,20,27,15.50
2014,08,21,20,28,15.50
2014,08,21,20,29,15.50
2014,08,21,20,30,15.40
2014,08,21,20,31,15.40
2014,08,21,20,32,15.40
2014,08,21,20,33,15.30
2014,08,21,20,34,15.30
2014,08,21,20,35,15.30
2014,08,21,20,36,15.20
2014,08,21,20,37,15.20
2014,08,21,20,38,15.10
2014,08,21,20,39,15.10
2014,08,21,20,40,15.00
2014,08,21,20,41,14.90
2014,08,21,20,42,14.80
2014,08,21,20,43,14.80
2014,08,21,20,44,14.70
2014,08,21,20,45,14.70
2014,08,21,20,46,14.60
2014,08,21,20,47,14.60
2014,08,21,20,48,14.50
2014,08,21,20,49,14.50
2014,08,21,20,50,14.40
2014,08,21,20,51,14.40
2014,08,21,20,52,14.30
2014,08,21,20,53,14.30
2014,08,21,20,54,14.30
2014,08,21,20,55,14.30
2014,08,21,20,56,14.20
2014,08,21,20,57,14.20
2014,08,21,20,58,14.20
2014,08,21,20,59,14.20
2014,08,21,21,00,14.20
2014,08,21,21,01,14.10
2014,08,21,21,02,14.10
2014,08,21,21,03,14.10
2014,08,21,21,04,14.10
2014,08,21,21,05,14.10
2014,08,21,21,06,14.10
2014,08,21,21,07,14.00
2014,08,21,21,08,14.00
2014,08,21,21,09,14.00
2014,08,21,21,10,13.90
2014,08,21,21,11,13.90
2014,08,21,21,12,13.90
2014,08,21,21,13,13.90
2014,08,21,21,14,13.80
2014,08,21,21,15,13.80
2014,08,21,21,16,13.80
2014,08,21,21,17,13.80
2014,08,21,21,18,13.80
2014,08,21,21,19,13.80
2014,08,21,21,20,13.80
2014,08,21,21,21,13.80
2014,08,21,21,22,13.70
2014,08,21,21,23,13.70
2014,08,21,21,24,13.70
2014,08,21,21,25,13.70
2014,08,21,21,26,13.70
2014,08,21,21,27,13.70
2014,08,21,21,28,13.70
2014,08,21,21,29,13.60
2014,08,21,21,30,13.60
2014,08,21,21,31,13.60
2014,08,21,21,32,13.60
2014,08,21,21,33,13.60
2014,08,21,21,34,13.60
2014,08,21,21,35,13.60
2014,08,21,21,36,13.60
2014,08,21,21,37,13.60
2014,08,21,21,38,13.60
2014,08,21,21,39,13.60
2014,08,21,21,40,13.60
2014,08,21,21,41,13.60
2014,08,21,21,42,13.60
2014,08,21,21,43,13.60
2014,08,21,21,44,13.60
2014,08,21,21,45,13.60
2014,08,21,21,46,13.60
2014,08,21,21,47,13.60
2014,08,21,21,48,13.50
2014,08,21,21,49,13.50
2014,08,21,21,50,13.50
2014,08,21,21,51,13.50
2014,08,21,21,52,13.50
2014,08,21,21,53,13.50
2014,08,21,21,54,13.50
2014,08,21,21,55,13.50
2014,08,21,21,56,13.60
2014,08,21,21,57,13.60
2014,08,21,21,58,13.60
2014,08,21,21,59,13.60
2014,08,21,22,00,13.60
2014,08,21,22,01,13.60
2014,08,21,22,02,13.60
2014,08,21,22,03,13.60
2014,08,21,22,04,13.60
2014,08,21,22,05,13.60
2014,08,21,22,06,13.60
2014,08,21,22,07,13.60
2014,08,21,22,08,13.60
2014,08,21,22,09,13.60
2014,08,21,22,10,13.60
2014,08,21,22,11,13.70
2014,08,21,22,12,13.70
2014,08,21,22,13,13.70
2014,08,21,22,14,13.70
2014,08,21,22,15,13.70
2014,08,21,22,16,13.70
2014,08,21,22,17,13.70
2014,08,21,22,18,13.80
2014,08,21,22,19,13.80
2014,08,21,22,20,13.80
2014,08,21,22,21,13.80
2014,08,21,22,22,13.80
2014,08,21,22,23,13.80
2014,08,21,22,24,13.80
2014,08,21,22,25,13.80
2014,08,21,22,26,13.80
2014,08,21,22,27,13.80
2014,08,21,22,28,13.80
2014,08,21,22,29,13.80
2014,08,21,22,30,13.80
2014,08,21,22,31,13.80
2014,08,21,22,32,13.80
2014,08,21,22,33,13.80
2014,08,21,22,34,13.80
2014,08,21,22,35,13.80
2014,08,21,22,36,13.80
2014,08,21,22,37,13.80
2014,08,21,22,38,13.80
2014,08,21,22,39,13.80
2014,08,21,22,40,13.70
2014,08,21,22,41,13.70
2014,08,21,22,42,13.70
2014,08,21,22,43,13.70
2014,08,21,22,44,13.70
2014,08,21,22,45,13.70
2014,08,21,22,46,13.70
2014,08,21,22,47,13.70
2014,08,21,22,48,13.70
2014,08,21,22,49,13.70
2014,08,21,22,50,13.60
2014,08,21,22,51,13.60
2014,08,21,22,52,13.60
2014,08,21,22,53,13.60
2014,08,21,22,54,13.60
2014,08,21,22,55,13.60
2014,08,21,22,56,13.60
2014,08,21,22,57,13.60
2014,08,21,22,58,13.60
2014,08,21,22,59,13.60
2014,08,21,23,00,13.60
2014,08,21,23,01,13.60
2014,08,21,23,02,13.60
2014,08,21,23,03,13.60
2014,08,21,23,04,13.60
2014,08,21,23,05,13.60
2014,08,21,23,06,13.60
2014,08,21,23,07,13.60
2014,08,21,23,08,13.60
2014,08,21,23,09,13.60
2014,08,21,23,10,13.50
2014,08,21,23,11,13.50
2014,08,21,23,12,13.50
2014,08,21,23,13,13.50
2014,08,21,23,14,13.50
2014,08,21,23,15,13.50
2014,08,21,23,16,13.50
2014,08,21,23,17,13.40
2014,08,21,23,18,13.40
2014,08,21,23,19,13.40
2014,08,21,23,20,13.40
2014,08,21,23,21,13.40
2014,08,21,23,22,13.40
2014,08,21,23,23,13.40
2014,08,21,23,24,13.40
2014,08,21,23,25,13.40
2014,08,21,23,26,13.40
2014,08,21,23,27,13.40
2014,08,21,23,28,13.40
2014,08,21,23,29,13.40
2014,08,21,23,30,13.40
2014,08,21,23,31,13.40
2014,08,21,23,32,13.40
2014,08,21,23,33,13.40
2014,08,21,23,34,13.30
2014,08,21,23,35,13.30
2014,08,21,23,36,13.30
2014,08,21,23,37,13.30
2014,08,21,23,38,13.30
2014,08,21,23,39,13.30
2014,08,21,23,40,13.30
2014,08,21,23,41,13.30
2014,08,21,23,42,13.30
2014,08,21,23,43,13.20
2014,08,21,23,44,13.20
2014,08,21,23,45,13.20
2014,08,21,23,46,13.20
2014,08,21,23,47,13.20
2014,08,21,23,48,13.20